Preview of NWS' New Version of Forecast
This preview is not operational and should not be used for support decisions.

Regional Weather Roundup (RWR)

Issued by National Weather Service (NWS)

                            
000
ASCA42 TJSJ 201810
RWRPR 
PUERTO RICO/U.S. VIRGIN ISLANDS HOURLY WEATHER ROUNDUP
NATIONAL WEATHER SERVICE SAN JUAN PR
200 PM AST SAT APR 20 2019

PRZ001>002-007>008-010-201900-
PUERTO RICO
  
CITY           SKY/WX    TMP DP  RH WIND       PRES   REMARKS
SAN JUAN LMM   MOSUNNY   84  70  61 NE20      30.04F                  
AGUADILLA      SUNNY     82  70  65 E22       30.05F                  
CEIBA          SUNNY     88  70  55 MISG      30.08F HX  92           
$$

VIZ001>002-201900-
U.S. VIRGIN ISLANDS
  
CITY           SKY/WX    TMP DP  RH WIND       PRES   REMARKS
CHARLOTTE AMA  MOSUNNY   84  64  51 SE15      30.05F                  
CHRISTIANSTED  MOSUNNY   88  68  51 E20       30.06F HX  91           
$$

HOURLY WEATHER ROUNDUP FOR THE NEWS MEDIA
  
CITY           SKY/WX    TMP DP  RH WIND       PRES   REMARKS
ORLANDO        FAIR      74  47  38 W18G30    29.96F                  
NEW YORK       FOG       60  60 100 S21       29.76F VSB 1/4          
NEWARK         CLOUDY    64  61  90 SE12      29.73F                  
CHICAGO        FAIR      61  12  14 N22       29.83F                  
HARTFORD       CLOUDY    66  65  96 S21G28    29.92S                  
BOSTON         CLOUDY    73  64  73 S29G44    29.88F                  
DALLAS         SUNNY     74  40  29 SW8       30.06F                  
PHILADELPHIA   PTSUNNY   71  61  70 S14G22    29.69                   
LOS ANGELES    CLOUDY    58  52  80 W10       30.02R                  
WASHINGTON DC  PTSUNNY   70  48  45 SW15G25   29.63S